Location: Chandrammap?lem
(16.9200°N, 81.0051°E)
Time: 02:16:08
(UTC+00:00)

Cosmos 2341 Rocket - Pass Details

Date: 29 May 2024
Orbit: 967 x 1004 km, 82.9° (Epoch: 16 June)

Event Time Altitude Azimuth Distance (km) Brightness Sun altitude
Exits shadow 22:06:05 49° 276° (W) 1,240 4.2 -25.1°
Drops below altitude 10° 22:12:02 10° 349° (N) 2,713 6.6 -24.0°
Sets 22:14:38 0° 355° (N) 3,658 7.4 -23.5°
